STARLINK-32228 (60445 NORAD) Tracking and Keplerian Element Data

This shows tracking and keplerian element data for the satellite.

Feedback or suggestion? Click here.




ElementValue
Catalog60445
NameSTARLINK-32228
Epoch Orbit1083
Epoch Day286.83579277
Epoch Year2024
RAAN78.9424
Inclination53.1625
Eccentricity0.000102
Argument of Perigee99.3774
Mean Anonmoly260.7342
Mean Motion15.30196226
Decay Rate1.68E-06
L11 60445U 24144W 24286.83579277 .00000168 00000+0 17809-4 0 9997
L22 60445 53.1625 78.9424 0001020 99.3774 260.7342 15.30196226 10830



Live tracking and technical data element details for STARLINK-32228 (NORAD 60445). STARLINK-32228 can be tracked NOW for your location showing map with azimuth and elevation plus other details from your city location.







IsCatalogInMostPopularTable: catalog: 60445, numindb: 7
Update: records affected: 1



GetName: 60445 STARLINK-32228

Hit Count: updated at: Tue, 03 Dec 2024 02:59:56 GMT